sat.trackr.live / text

‹ back to catalog

STARLINK-11077 [DTC]

NORAD 58707 · 2024-002C

PAYLOAD ACTIVE UNKNOWN

§ Identity

Operator
Country
US
Launch date
2024-01-03
Launch site
AFWTR
Launch vehicle
Mass (kg)
RCS (m²)

Purposes: comms

External: N2YO · Heavens-Above · Gunter

§ Orbital elements

Epoch: 2026-09-20T15:08:47.464224Z

Period
91.74 min
Inclination
53.1594°
Eccentricity
0.0000706
Mean motion
15.69701983 rev/d
Perigee alt
359.3 km
Apogee alt
360.2 km
Semi-major
6,737.9 km
B*
1.8333e-6
RAAN
33.1236°
Arg perigee
77.2873°
Mean anomaly
282.8224°
Rev number
15,705

§ Raw data

STARLINK-11077 [DTC]1 58707U 24002C   26263.63110491 -.00000366  00000+0  18333-5 0  99972 58707  53.1594  33.1236 0000706  77.2873 282.8224 15.69701983157056

JSON: /api/v1/satellites/58707 · /tle

For live sub-satellite position, see the globe view (requires WebGL).

§ Visibility from observer

Set your observer location to see the next 7 days of passes ≥ 10°. The values pass through the URL so the page stays shareable.

No JS? Fill the form by hand. The geolocation button needs JavaScript.